| time (UTC) | temp F | wind direction | speed knots | gust knots | rain 1hr in | rain 24hr in | rain mn in | humidity % | barometer mb |
| 20260508154558 | 60 | 113 | 0.0 | 2.6 | 0.00 | 0.00 | 0.00 | 55 | 1014.0 |
| 20260508153032 | 59 | 334 | 0.9 | 4.3 | 0.00 | 0.00 | 0.00 | 57 | 1014.1 |
| 20260508151527 | 57 | 136 | 0.0 | 5.2 | 0.00 | 0.00 | 0.00 | 58 | 1014.3 |
| 20260508150031 | 56 | 33 | 0.9 | 3.5 | 0.00 | 0.00 | 0.00 | 61 | 1014.4 |
| 20260508144520 | 54 | 58 | 0.0 | 0.9 | 0.00 | 0.00 | 0.00 | 64 | 1014.6 |
| 20260508143020 | 53 | 124 | 0.0 | 0.9 | 0.00 | 0.00 | 0.00 | 65 | 1014.6 |
| 20260508141524 | 53 | 98 | 0.0 | 2.6 | 0.00 | 0.00 | 0.00 | 63 | 1014.6 |
| 20260508140017 | 53 | 173 | 0.0 | 3.5 | 0.00 | 0.00 | 0.00 | 63 | 1014.6 |
| 20260508134517 | 53 | 166 | 0.0 | 2.6 | 0.00 | 0.00 | 0.00 | 62 | 1014.5 |
| 20260508133022 | 54 | 77 | 0.0 | 1.7 | 0.00 | 0.00 | 0.00 | 62 | 1014.6 |
| 20260508131515 | 54 | 264 | 0.0 | 3.5 | 0.00 | 0.00 | 0.00 | 62 | 1014.5 |
| 20260508130015 | 54 | 160 | 0.0 | 2.6 | 0.00 | 0.00 | 0.00 | 63 | 1014.4 |
| 20260508124511 | 52 | 347 | 0.0 | 1.7 | 0.00 | 0.00 | 0.00 | 66 | 1014.4 |
| 20260508123006 | 50 | 173 | 0.0 | 1.7 | 0.00 | 0.00 | 0.00 | 67 | 1014.3 |
| 20260508121506 | 50 | 138 | 0.0 | 1.7 | 0.00 | 0.00 | 0.00 | 68 | 1014.3 |
| 20260508120003 | 49 | 136 | 0.0 | 0.9 | 0.00 | 0.00 | 0.00 | 69 | 1014.3 |
| 20260508114502 | 48 | 319 | 0.0 | 2.6 | 0.00 | 0.00 | 0.00 | 70 | 1014.2 |
| 20260508113001 | 47 | 105 | 0.0 | 0.9 | 0.00 | 0.00 | 0.00 | 71 | 1014.1 |
| 20260508111501 | 45 | 226 | 0.0 | 0.9 | 0.00 | 0.00 | 0.00 | 75 | 1014.1 |
| 20260508110114 | 44 | 201 | 0.0 | 0.9 | 0.00 | 0.00 | 0.00 | 77 | 1014.1 |
| 20260508104600 | 44 | 324 | 0.0 | 0.9 | 0.00 | 0.00 | 0.00 | 76 | 1013.9 |
| 20260508103101 | 43 | 127 | 0.0 | 0.9 | 0.00 | 0.00 | 0.00 | 77 | 1013.8 |
| 20260508101559 | 42 | 117 | 0.0 | 0.9 | 0.00 | 0.00 | 0.00 | 80 | 1013.8 |
| 20260508100110 | 42 | 117 | 0.0 | 0.9 | 0.00 | 0.00 | 0.00 | 80 | 1013.6 |
| 20260508094606 | 42 | 117 | 0.0 | 0.0 | 0.00 | 0.00 | 0.00 | 79 | 1013.6 |
| 20260508093056 | 43 | 117 | 0.0 | 0.0 | 0.00 | 0.00 | 0.00 | 77 | 1013.7 |
| 20260508091603 | 43 | 119 | 0.0 | 0.0 | 0.00 | 0.00 | 0.00 | 78 | 1013.7 |
| 20260508090112 | 43 | 119 | 0.0 | 0.0 | 0.00 | 0.00 | 0.00 | 79 | 1013.8 |
| 20260508084552 | 42 | 118 | 0.0 | 0.0 | 0.00 | 0.00 | 0.00 | 80 | 1013.9 |
| 20260508083051 | 42 | 118 | 0.0 | 0.0 | 0.00 | 0.00 | 0.00 | 81 | 1013.8 |
| 20260508081602 | 42 | 118 | 0.0 | 0.0 | 0.00 | 0.00 | 0.00 | 80 | 1013.9 |
| 20260508080047 | 43 | 119 | 0.0 | 0.0 | 0.00 | 0.00 | 0.00 | 82 | 1013.9 |
| 20260508074548 | 43 | 125 | 0.0 | 0.0 | 0.00 | 0.00 | 0.00 | 81 | 1013.9 |
| 20260508073102 | 44 | 125 | 0.0 | 0.0 | 0.00 | 0.00 | 0.00 | 78 | 1014.0 |
| 20260508071539 | 46 | 125 | 0.0 | 0.0 | 0.00 | 0.00 | 0.00 | 75 | 1014.1 |
| 20260508070042 | 48 | 126 | 0.0 | 0.0 | 0.00 | 0.00 | 0.00 | 72 | 1014.3 |
| 20260508064537 | 48 | 125 | 0.0 | 1.7 | 0.00 | 0.00 | 0.00 | 70 | 1014.4 |
| 20260508063038 | 49 | 333 | 0.0 | 0.9 | 0.00 | 0.00 | 0.00 | 68 | 1014.7 |
| 20260508061541 | 49 | 319 | 0.0 | 0.9 | 0.00 | 0.00 | 0.00 | 65 | 1014.7 |
| 20260508060037 | 49 | 16 | 0.0 | 0.9 | 0.00 | 0.00 | 0.00 | 65 | 1014.5 |
| 20260508054536 | 50 | 16 | 0.0 | 0.9 | 0.00 | 0.00 | 0.00 | 63 | 1014.4 |
| 20260508053034 | 50 | 359 | 0.0 | 0.9 | 0.00 | 0.00 | 0.00 | 62 | 1014.2 |
| 20260508051531 | 50 | 332 | 0.0 | 0.9 | 0.00 | 0.00 | 0.00 | 62 | 1014.2 |
| 20260508050034 | 49 | 71 | 0.0 | 0.9 | 0.00 | 0.00 | 0.00 | 62 | 1014.2 |
| 20260508044526 | 48 | 20 | 0.0 | 0.9 | 0.00 | 0.00 | 0.00 | 65 | 1014.4 |
| 20260508043023 | 48 | 67 | 0.0 | 0.0 | 0.00 | 0.00 | 0.00 | 68 | 1014.4 |
| 20260508041521 | 47 | 68 | 0.0 | 0.9 | 0.00 | 0.00 | 0.00 | 71 | 1014.4 |
| 20260508040015 | 45 | 11 | 0.0 | 0.0 | 0.00 | 0.00 | 0.00 | 76 | 1014.4 |
| 20260508034516 | 44 | 9 | 0.0 | 0.0 | 0.00 | 0.00 | 0.00 | 75 | 1014.3 |
| 20260508033014 | 45 | 11 | 0.0 | 0.0 | 0.00 | 0.00 | 0.00 | 75 | 1014.4 |
| 20260508031514 | 43 | 9 | 0.0 | 0.0 | 0.00 | 0.00 | 0.00 | 79 | 1014.4 |
| 20260508030013 | 42 | 11 | 0.0 | 0.0 | 0.00 | 0.00 | 0.00 | 78 | 1014.3 |
| 20260508024532 | 42 | 9 | 0.0 | 0.0 | 0.00 | 0.00 | 0.00 | 76 | 1014.3 |
| 20260508023013 | 43 | 11 | 0.0 | 0.0 | 0.00 | 0.00 | 0.00 | 74 | 1014.3 |
| 20260508021511 | 44 | 9 | 0.0 | 0.0 | 0.00 | 0.00 | 0.00 | 73 | 1014.3 |
| 20260508020011 | 44 | 9 | 0.0 | 0.0 | 0.00 | 0.00 | 0.00 | 71 | 1014.2 |
| 20260508014510 | 45 | 9 | 0.0 | 0.0 | 0.00 | 0.00 | 0.00 | 68 | 1014.4 |
| 20260508013013 | 46 | 11 | 0.0 | 0.0 | 0.00 | 0.00 | 0.00 | 66 | 1014.3 |
| 20260508011509 | 47 | 9 | 0.0 | 0.0 | 0.00 | 0.00 | 0.00 | 62 | 1014.2 |
| 20260508010010 | 49 | 9 | 0.0 | 0.0 | 0.00 | 0.00 | 0.00 | 57 | 1014.0 |
| 20260508004513 | 51 | 9 | 0.0 | 0.0 | 0.00 | 0.00 | 0.00 | 53 | 1014.0 |
| 20260508003007 | 52 | 9 | 0.0 | 0.0 | 0.00 | 0.00 | 0.00 | 51 | 1014.0 |
| 20260508001519 | 53 | 336 | 0.0 | 1.7 | 0.00 | 0.00 | 0.00 | 48 | 1013.9 |
| 20260508000005 | 54 | 340 | 0.0 | 0.9 | 0.00 | 0.00 | 0.00 | 47 | 1013.7 |
| 20260507234509 | 55 | 1 | 0.0 | 2.6 | 0.00 | 0.00 | 0.00 | 45 | 1013.6 |
| 20260507233006 | 55 | 291 | 0.0 | 3.5 | 0.00 | 0.00 | 0.00 | 45 | 1013.6 |
| 20260507231504 | 55 | 348 | 0.0 | 3.5 | 0.00 | 0.00 | 0.00 | 44 | 1013.6 |
| 20260507230004 | 55 | 13 | 0.0 | 2.6 | 0.00 | 0.00 | 0.00 | 43 | 1013.6 |
| 20260507224504 | 55 | 328 | 0.0 | 1.7 | 0.00 | 0.00 | 0.00 | 45 | 1013.7 |
| 20260507223004 | 56 | 352 | 0.0 | 2.6 | 0.00 | 0.00 | 0.00 | 43 | 1013.9 |
| 20260507221501 | 56 | 335 | 0.0 | 2.6 | 0.00 | 0.00 | 0.00 | 44 | 1013.9 |
| 20260507220004 | 57 | 6 | 0.0 | 4.3 | 0.00 | 0.00 | 0.00 | 43 | 1013.9 |
| 20260507214501 | 58 | 217 | 0.0 | 2.6 | 0.00 | 0.00 | 0.00 | 41 | 1013.7 |
| 20260507213101 | 58 | 136 | 0.0 | 2.6 | 0.00 | 0.00 | 0.00 | 45 | 1013.6 |
| 20260507213000 | 58 | 39 | 0.0 | 3.5 | 0.00 | 0.00 | 0.00 | 42 | 1013.6 |
| 20260507211605 | 57 | 190 | 0.0 | 2.6 | 0.00 | 0.00 | 0.00 | 44 | 1013.5 |
| 20260507210111 | 58 | 210 | 0.9 | 3.5 | 0.00 | 0.00 | 0.00 | 40 | 1013.6 |
| 20260507204601 | 59 | 155 | 0.9 | 7.0 | 0.00 | 0.00 | 0.00 | 41 | 1013.4 |
| 20260507203125 | 59 | 23 | 0.9 | 6.1 | 0.00 | 0.00 | 0.00 | 43 | 1013.4 |
| 20260507201555 | 58 | 310 | 1.7 | 4.3 | 0.00 | 0.00 | 0.00 | 44 | 1013.5 |
| 20260507200058 | 58 | 336 | 0.0 | 7.0 | 0.00 | 0.00 | 0.00 | 45 | 1013.7 |
| 20260507194613 | 59 | 4 | 0.0 | 2.6 | 0.00 | 0.00 | 0.00 | 47 | 1013.6 |
| 20260507193055 | 59 | 281 | 0.9 | 7.0 | 0.00 | 0.00 | 0.00 | 44 | 1013.7 |
| 20260507191552 | 59 | 316 | 0.0 | 7.8 | 0.00 | 0.00 | 0.00 | 42 | 1013.7 |
| 20260507190056 | 59 | 243 | 1.7 | 6.1 | 0.00 | 0.00 | 0.00 | 44 | 1013.9 |
| 20260507184551 | 59 | 281 | 0.9 | 3.5 | 0.00 | 0.00 | 0.00 | 48 | 1013.9 |
| 20260507183049 | 59 | 58 | 0.9 | 3.5 | 0.00 | 0.00 | 0.00 | 49 | 1014.0 |
| 20260507181548 | 58 | 305 | 0.0 | 6.1 | 0.00 | 0.00 | 0.00 | 48 | 1014.0 |
| 20260507180047 | 59 | 132 | 0.9 | 3.5 | 0.00 | 0.00 | 0.00 | 50 | 1014.1 |
| 20260507174548 | 58 | 136 | 0.0 | 3.5 | 0.00 | 0.00 | 0.00 | 50 | 1014.2 |
| 20260507173115 | 57 | 162 | 0.9 | 7.0 | 0.00 | 0.00 | 0.00 | 51 | 1014.4 |
| 20260507171544 | 58 | 1 | 0.0 | 3.5 | 0.00 | 0.00 | 0.00 | 50 | 1014.4 |
| 20260507170042 | 57 | 259 | 0.0 | 7.8 | 0.00 | 0.00 | 0.00 | 51 | 1014.8 |
| 20260507164541 | 57 | 344 | 1.7 | 6.1 | 0.00 | 0.00 | 0.00 | 47 | 1014.8 |
| 20260507163041 | 57 | 308 | 0.9 | 5.2 | 0.00 | 0.00 | 0.00 | 47 | 1014.9 |
| 20260507161546 | 57 | 348 | 0.9 | 3.5 | 0.00 | 0.00 | 0.00 | 47 | 1014.9 |
| 20260507160041 | 57 | 245 | 0.9 | 7.0 | 0.00 | 0.00 | 0.00 | 47 | 1014.8 |